{"data":{"norad_id":67644,"epoch":"2026-09-19T00:22:16.066272Z","epoch_age_seconds":197135,"freshness":"STALE","line1":"1 67644U 26020AD  26262.01546373  .00009375  00000+0  34971-3 0  9994","line2":"2 67644  43.0034 127.6837 0001262 267.7802  92.2905 15.27586020 35685","mean_motion":15.2758602,"eccentricity":0.0001262,"inclination_deg":43.0034,"raan_deg":127.6837,"arg_perigee_deg":267.7802,"mean_anomaly_deg":92.2905,"bstar":0.00034971,"rev_number":3568,"period_min":94.266377221755,"perigee_km":482.16519064273,"apogee_km":483.89694946361,"semimajor_km":6861.1680700532,"source":"CELESTRAK","updated_at":"2026-09-20T09:00:43.617109Z"}}